Regional Weather Roundup
Issued by NWS

Home | Current Version | Previous Version | Text Only | Print | Product List | Glossary On
Versions: 1 2 3 4 5 6 7 8 9 10 11 12 13 14 15 16 17 18 19 20 21 22 23 24 25 26 27 28 29 30 31 32 33 34 35 36 37 38 39 40 41 42 43 44 45 46 47 48 49 50
799
ASUS43 KDMX 230001
RWRIA

WEATHER ROUNDUP FOR IOWA
NATIONAL WEATHER SERVICE DES MOINES IA
700 PM CDT WED MAR 22 2017

NOTE: "FAIR" INDICATES FEW OR NO CLOUDS BELOW 12,000 FEET WITH NO
SIGNIFICANT WEATHER AND/OR OBSTRUCTIONS TO VISIBILITY.

* - THESE STATIONS ARE NOT NWS STATIONS...THUS NOT UNDER NWS
QUALITY CONTROL.  THEY ALSO DO NOT REPORT WEATHER SUCH
AS PRECIPITATION OR FOG.

IAZ001>003-012>014-020>022-031>034-043>046-230100-
   NORTHWEST IOWA

CITY           SKY/WX    TMP DP  RH WIND       PRES   REMARKS
CARROLL *      CLOUDY    43  27  52 SE18G25   30.25F
CHEROKEE *     CLOUDY    41  24  52 SE17      30.23F
DENISON *      CLOUDY    43  28  56 E16       30.20F
LE MARS *      CLOUDY    41  27  56 SE17G24   30.20F
ORANGE CITY *  CLOUDY    39  27  60 SE14G21   30.18F WCI  31
SHELDON *      CLOUDY    37  28  70 SE17      30.18F WCI  28
SIOUX CITY     CLOUDY    45  29  53 SE22      30.17F
6HR MIN TEMP:  36; 6HR MAX TEMP:  45;

SPENCER        CLOUDY    38  23  55 SE18      30.25F WCI  28
6HR MIN TEMP:  34; 6HR MAX TEMP:  38;

STORM LAKE *   CLOUDY    39  23  52 SE16G24   30.23F WCI  30
$$

IAZ055>058-069>071-079>083-090>094-230100-
   SOUTHWEST IOWA

CITY           SKY/WX    TMP DP  RH WIND       PRES   REMARKS
ATLANTIC *     CLOUDY    46  21  36 SE16      30.22F
AUDUBON *      CLOUDY    45  25  45 E15       30.24F
CLARINDA *     MOCLDY    46  25  42 SE10G20   30.26S
COUNCIL BLFS * PTCLDY    46  23  39 SE15G24   30.19F
CRESTON *      CLOUDY    45  23  42 SE20G26   30.26F
HARLAN  *      CLOUDY    46  23  39 SE18      30.24F
LAMONI         CLOUDY    45  21  38 SE12G21   30.27F
6HR MIN TEMP:  41; 6HR MAX TEMP:  49;

RED OAK *      MOCLDY    46  25  42 SE14G22   30.22F
SHENANDOAH *   CLOUDY    48  25  40 E16G23    30.22F
$$

IAZ047>049-059>061-072>074-084-230100-
   CENTRAL IOWA

CITY           SKY/WX    TMP DP  RH WIND       PRES   REMARKS
AMES           CLOUDY    43  20  39 SE14      30.31F
6HR MIN TEMP:  40; 6HR MAX TEMP:  45;

ANKENY *       CLOUDY    43  21  42 SE15G23   30.32F
BOONE *        CLOUDY    43  19  39 SE21G26   30.29F
CHARITON *     CLOUDY    45  21  39 SE14G21   30.30F
DES MOINES     CLOUDY    45  22  40 E14G21    30.31F
6HR MIN TEMP:  40; 6HR MAX TEMP:  46;

GRINNELL*      CLOUDY    42  18  38 E17       30.34F
MARSHALLTOWN   CLOUDY    41  17  38 SE18      30.32F
6HR MIN TEMP:  39; 6HR MAX TEMP:  44;

NEWTON *       CLOUDY    43  18  36 SE13      30.32F
PELLA *        CLOUDY    44  22  42 E9G16     30.34F
PERRY *        CLOUDY    42  21  42 E16       30.28F
$$

IAZ004>006-015-016-023>025-035-036-230100-
   NORTH CENTRAL IOWA

CITY           SKY/WX    TMP DP  RH WIND       PRES   REMARKS
ALGONA *       CLOUDY    39  25  56 SE13G20   30.28F WCI  32
CLARION *      CLOUDY    39  23  52 SE15      30.31F WCI  31
ESTHERVILLE    CLOUDY    35  27  72 SE15      30.26  WCI  25
6HR MIN TEMP:  31; 6HR MAX TEMP:  35;

FORT DODGE *   CLOUDY    41  19  42 SE15G22   30.29F
MASON CITY     CLOUDY    38  22  52 SE12      30.35F WCI  30
6HR MIN TEMP:  35; 6HR MAX TEMP:  40;

FOREST CITY *  CLOUDY    37  23  56 SE12      30.32F WCI  30
WEBSTER CITY * CLOUDY    41  18  38 SE18      30.28F
IOWA FALLS *   CLOUDY    41  19  41 E14       30.33F
$$

IAZ007>011-017>019-026>030-037>042-050>054-066-230100-
   NORTHEAST IOWA

CITY           SKY/WX    TMP DP  RH WIND       PRES   REMARKS
CEDAR RAPIDS   CLOUDY    40  18  41 SE12      30.38F WCI  33
6HR MIN TEMP:  38; 6HR MAX TEMP:  44;

CHARLES CITY * CLOUDY    39  14  35 SE16      30.36F WCI  30
CLINTON *      PTCLDY    39  22  50 SE14      30.44F WCI  31
DECORAH *      CLOUDY    37  12  35 SE8G15    30.39S WCI  31
DUBUQUE        CLOUDY    37  17  44 SE7       30.42F WCI  32
6HR MIN TEMP:  34; 6HR MAX TEMP:  41;

MONTICELLO *   CLOUDY    39  19  45 SE9G15    30.41F WCI  33
OELWEIN *      CLOUDY    39  18  41 SE14      30.40S WCI  31
WATERLOO       CLOUDY    41  14  33 SE14      30.37F
6HR MIN TEMP:  37; 6HR MAX TEMP:  43;

$$

IAZ064-065-067-068-078-230100-
   EAST CENTRAL IOWA

CITY           SKY/WX    TMP DP  RH WIND       PRES   REMARKS
DAVENPORT      PTCLDY    40  19  43 SE12      30.43F WCI  33
6HR MIN TEMP:  38; 6HR MAX TEMP:  44;

IOWA CITY      CLOUDY    43  19  38 E10       30.41F
6HR MIN TEMP:  40; 6HR MAX TEMP:  45;

MUSCATINE *    MOCLDY    43  19  39 E10       30.42F
QUAD CITIES    MOCLDY    41  21  44 SE10      30.43F
6HR MIN TEMP:  40; 6HR MAX TEMP:  45;

$$

IAZ062-063-075>077-085>089-095>099-230100-
   SOUTHEAST IOWA

CITY           SKY/WX    TMP DP  RH WIND       PRES   REMARKS
BURLINGTON     PTCLDY    43  17  35 E13       30.39F
6HR MIN TEMP:  41; 6HR MAX TEMP:  47;

FAIRFIELD *    CLOUDY    45  16  31 E13       30.36F
FORT MADISON * CLOUDY    45  18  33 E9G16     30.39F
KEOKUK *       CLOUDY    45  16  31 E14G21    30.37F
OSKALOOSA *    CLOUDY    43  20  39 E15       30.35S
CENTERVILLE *  MOCLDY    45  18  33 E10       30.33S
OTTUMWA        CLOUDY    45  17  32 E14       30.35F
6HR MIN TEMP:  42; 6HR MAX TEMP:  48;

WASHINGTON *   CLOUDY    43  19  39 E14       30.40F
$$

ABBREVIATIONS USED IN REMARKS
   TC - TEMPERATURES IN CELSIUS
  WCI - WIND CHILL INDEX
   HX - HEAT INDEX
  VSB - VISIBILITY
$$





USA.gov is the U.S. government's official web portal to all federal, state and local government web resources and services.